Location: Tierra del Sol
(32.6128°N, 116.3319°W)
Time: 22:25:37
(UTC-07:00)

Amateur Radio Satellites - All Passes

Search period start: 25 March 2017 21:55
Search period end: 26 March 2017 21:55
Location: Tierra del Sol, 32.6128°N, 116.3319°W

Satellite Date Start Highest point End Downlink Frequencies (MHz)
Time Altitude Azimuth
AO-85 25 Mar 22:01:06 22:04:23 20° 305° (NW) 22:07:31 145.980
ISS 25 Mar 22:17:14 22:17:45 10° 331° (NNW) 22:18:17 437.550
FO-29 25 Mar 22:25:02 22:29:35 24° 94° (E) 22:33:50 435.910
PRISM 25 Mar 22:27:42 22:31:52 79° 283° (WNW) 22:36:01 437.425
DELFI C3 25 Mar 22:41:52 22:44:29 17° 265° (W) 22:47:07 145.870
TIGRISAT 25 Mar 22:51:26 22:55:50 82° 101° (E) 23:00:07 435.000
LO-87 25 Mar 22:55:28 22:58:59 61° 77° (ENE) 23:02:33 145.935 - 145.965
UNISAT 6 25 Mar 23:01:23 23:05:46 69° 284° (WNW) 23:10:02 437.425
VELOX 1 25 Mar 23:04:45 23:05:24 10° 65° (ENE) 23:06:03 145.980
BEESAT 3 25 Mar 23:12:58 23:16:23 28° 304° (WNW) 23:19:51 437.485
SO-50 25 Mar 23:14:42 23:17:23 15° 50° (NE) 23:20:03 436.795
ESTCUBE 1 25 Mar 23:21:10 23:25:34 63° 76° (ENE) 23:30:00 437.505/2401.250
BEESAT 2 25 Mar 23:26:16 23:30:07 55° 300° (WNW) 23:34:03 435.950
NANOSAT C BR1 25 Mar 23:37:56 23:40:38 16° 95° (E) 23:43:18 145.865
RS-15 25 Mar 23:39:21 23:50:47 50° 252° (WSW) 00:01:40 29.354- 29.394
EO-79 25 Mar 23:41:37 23:44:47 20° 96° (E) 23:47:55 145.935-145.965
AIST 2D 25 Mar 23:43:29 23:46:47 39° 99° (E) 23:50:03 435.315
SPROUT 25 Mar 23:51:16 23:55:04 31° 72° (ENE) 23:58:53 437.525
50 SAT 25 Mar 23:56:25 23:59:05 21° 72° (ENE) 00:01:46 437.505
POLYITAN 1 26 Mar 00:08:46 00:12:49 45° 99° (E) 00:16:50 437.675
FO-29 26 Mar 00:09:32 00:14:46 34° 291° (WNW) 00:19:34 435.910
QB50P2 26 Mar 00:13:15 00:17:26 57° 101° (E) 00:21:34 145.880/145.840
DX 1 26 Mar 00:17:02 00:20:47 29° 71° (ENE) 00:24:33 434.975-435.025
DUCHIFAT 1 26 Mar 00:26:34 00:30:44 62° 101° (E) 00:34:52 145.980
VELOX 1 26 Mar 00:36:58 00:41:17 58° 259° (W) 00:45:39 145.980
BUGSAT 1 26 Mar 00:46:00 00:49:40 30° 97° (E) 00:53:18 437.445
SO-50 26 Mar 00:53:45 00:58:04 48° 246° (WSW) 01:02:23 436.795
UKube-1 26 Mar 00:57:59 01:02:14 63° 75° (ENE) 01:06:30 .
NANOSAT C BR1 26 Mar 01:12:39 01:16:21 30° 288° (WNW) 01:20:01 145.865
EO-79 26 Mar 01:16:59 01:20:27 25° 289° (WNW) 01:23:53 145.935-145.965
Oscar 19 26 Mar 01:25:19 01:29:34 26° 97° (E) 01:33:50 437.125/150
SPROUT 26 Mar 01:28:13 01:30:59 17° 265° (W) 01:33:46 437.525
50 SAT 26 Mar 01:30:04 01:32:03 15° 265° (W) 01:34:03 437.505
Gurwin Techsat 1B 26 Mar 01:35:00 01:38:26 17° 94° (E) 01:41:51 435.225
POLYITAN 1 26 Mar 01:46:35 01:48:09 12° 293° (WNW) 01:49:43 437.675
DX 1 26 Mar 01:53:54 01:56:55 19° 264° (W) 01:59:59 434.975-435.025
BUGSAT 1 26 Mar 02:22:05 02:24:45 17° 291° (WNW) 02:27:23 437.445
BEESAT 26 Mar 02:24:18 02:28:42 38° 72° (ENE) 02:33:05 436.000
ITUPSAT 1 26 Mar 02:39:46 02:44:27 55° 74° (ENE) 02:49:08 437.325
MOZHAYETS 4 26 Mar 02:47:26 02:51:09 25° 71° (ENE) 02:54:52
AO-7 26 Mar 03:01:14 03:06:57 20° 95° (E) 03:12:38 .
Oscar 19 26 Mar 03:04:21 03:08:48 30° 290° (WNW) 03:13:16 437.125/150
ISS 26 Mar 03:09:53 03:11:49 15° 32° (NNE) 03:13:45 437.550
ITAMSAT 1 26 Mar 03:11:02 03:15:07 23° 96° (E) 03:19:10 435.822/435.867
Tancredo 1 26 Mar 03:12:30 03:14:37 16° 34° (NE) 03:16:43 437.200
Gurwin Techsat 1B 26 Mar 03:13:28 03:18:32 46° 288° (WNW) 03:23:34 435.225
O/OREOS (USA 219) 26 Mar 03:34:15 03:38:51 72° 252° (WSW) 03:43:24 437.305
CUBESAT XI-V 26 Mar 03:39:42 03:41:54 13° 67° (ENE) 03:44:07 437.345
BEESAT 26 Mar 04:03:22 04:06:31 17° 265° (W) 04:09:41 436.000
KKS-1 26 Mar 04:08:57 04:13:08 41° 73° (ENE) 04:17:20 437.445
ITUPSAT 1 26 Mar 04:20:51 04:22:31 12° 267° (W) 04:24:12 437.325
MOZHAYETS 4 26 Mar 04:24:23 04:28:10 25° 264° (W) 04:31:57
ISS 26 Mar 04:45:17 04:48:30 51° 228° (SW) 04:51:43 437.550
STARS 26 Mar 04:46:34 04:50:46 46° 74° (ENE) 04:55:01 437.465
Tancredo 1 26 Mar 04:47:51 04:50:52 39° 228° (SW) 04:53:52 437.200
ITAMSAT 1 26 Mar 04:49:56 04:54:33 33° 290° (WNW) 04:59:09 435.822/435.867
AO-7 26 Mar 04:51:58 05:00:12 71° 290° (WNW) 05:08:25 .
CUBESAT XI-V 26 Mar 05:14:25 05:18:49 47° 261° (W) 05:23:15 437.345
M-CUBED/EXP-1 PRIME 26 Mar 05:19:33 05:21:51 16° 63° (ENE) 05:24:14 437.505
KKS-1 26 Mar 05:47:29 05:49:49 14° 266° (W) 05:52:08 437.445
XW-2B 26 Mar 05:53:35 05:54:54 11° 93° (E) 05:56:13 145.730 - 145.750
XW-2C 26 Mar 06:02:46 06:05:09 16° 95° (E) 06:07:31 145.795 - 145.815
DOVE 4 26 Mar 06:08:40 06:13:31 36° 97° (E) 06:18:14 437.250
YUBILEINY 26 Mar 06:11:55 06:15:42 14° 79° (E) 06:19:28 435.215
STARS 26 Mar 06:25:35 06:27:18 12° 267° (W) 06:29:01 437.465
NO-84 26 Mar 06:27:11 06:30:06 72° 130° (SE) 06:32:56 435.350 FM
JUGNU 26 Mar 06:29:46 06:31:19 11° 162° (SSE) 06:32:53 437.505
AO-85 26 Mar 06:34:56 06:38:54 85° 240° (WSW) 06:43:02 145.980
CUTE-I 26 Mar 06:35:50 06:40:52 42° 99° (E) 06:45:53 437.470
AO-7 26 Mar 06:48:32 06:51:29 12° 307° (NW) 06:54:26 .
M-CUBED/EXP-1 PRIME 26 Mar 06:53:02 06:56:02 25° 260° (W) 06:59:14 437.505
XW-2F 26 Mar 06:53:52 06:57:36 84° 103° (ESE) 07:01:19 145.980 - 146.000
LilacSat-2 26 Mar 06:54:27 06:58:13 87° 285° (WNW) 07:01:59 437.200
XW-2D 26 Mar 07:19:46 07:23:15 37° 285° (WNW) 07:26:43 145.860 - 145.880
NUDT-PHONESAT 26 Mar 07:20:42 07:24:14 48° 285° (WNW) 07:27:46 437.300
HO-68 26 Mar 07:20:55 07:26:45 26° 97° (E) 07:32:34 435.675
XW-2B 26 Mar 07:25:48 07:29:10 32° 286° (WNW) 07:32:31 145.730 - 145.750
KAITUO 1B 26 Mar 07:27:33 07:30:59 38° 285° (WNW) 07:34:25 145.475/437.950
STRAND 1 26 Mar 07:32:45 07:37:54 82° 257° (WSW) 07:43:04 437.568
BEESAT 3 26 Mar 07:33:28 07:37:10 35° 57° (ENE) 07:40:50 437.485
XW-2C 26 Mar 07:36:15 07:39:17 24° 288° (WNW) 07:42:18 145.795 - 145.815
XW-2A 26 Mar 07:39:01 07:42:05 32° 98° (E) 07:45:08 145.665 - 145.685
SEEDS 26 Mar 07:40:00 07:42:51 18° 95° (E) 07:45:43 437.485
CUTE 1.7 + AOD 2 26 Mar 07:45:18 07:49:08 33° 98° (E) 07:52:56 437.475
DOVE 4 26 Mar 07:46:48 07:50:53 23° 291° (WNW) 07:54:54 437.250
BEESAT 2 26 Mar 07:48:41 07:51:44 20° 54° (NE) 07:54:47 435.950
YUBILEINY 26 Mar 08:02:25 08:11:11 90° 101° (E) 08:19:57 435.215
JUGNU 26 Mar 08:15:28 08:19:39 20° 171° (S) 08:23:51 437.505
CUTE-I 26 Mar 08:16:45 08:20:34 20° 293° (WNW) 08:24:21 437.470
UWE-3 26 Mar 08:27:26 08:30:59 25° 96° (E) 08:34:28 435.000/436.395/437.385
AAUSAT CUBESAT 2 26 Mar 08:59:48 09:03:57 84° 104° (ESE) 09:08:06 437.432
CUBEBUG 2 26 Mar 08:59:51 09:04:12 68° 283° (WNW) 09:08:23 437.445
Oscar 11 26 Mar 09:01:56 09:05:39 28° 97° (E) 09:09:22 .
HO-68 26 Mar 09:07:47 09:14:35 48° 291° (WNW) 09:21:23 435.675
ZACube-1 26 Mar 09:08:33 09:12:35 45° 99° (E) 09:16:33 437.345
BEESAT 3 26 Mar 09:12:14 09:14:25 14° 251° (WSW) 09:16:35 437.485
PRISM 26 Mar 09:12:30 09:16:13 36° 73° (ENE) 09:19:59 437.425
PCSat 26 Mar 09:14:24 09:19:35 50° 111° (ESE) 09:24:48 145.827
SEEDS 26 Mar 09:14:55 09:18:30 28° 288° (WNW) 09:22:05 437.485
CUTE 1.7 + AOD 2 26 Mar 09:22:08 09:24:39 16° 291° (WNW) 09:27:09 437.475
BEESAT 2 26 Mar 09:26:02 09:29:28 27° 249° (WSW) 09:32:52 435.950
AO-73 26 Mar 09:37:01 09:41:13 85° 286° (WNW) 09:45:20 145.935
TIGRISAT 26 Mar 09:45:00 09:49:25 41° 73° (ENE) 09:53:47 435.000
UNISAT 6 26 Mar 09:54:52 09:59:28 59° 75° (ENE) 10:04:04 437.425
JUGNU 26 Mar 10:03:29 10:08:04 23° 181° (S) 10:12:40 437.505
UWE-3 26 Mar 10:04:09 10:07:14 20° 290° (WNW) 10:10:18 435.000/436.395/437.385
YUBILEINY 26 Mar 10:04:35 10:09:03 15° 293° (WNW) 10:13:31 435.215
FO-29 26 Mar 10:13:06 10:20:48 62° 73° (ENE) 10:28:11 435.910
SRMSAT 26 Mar 10:18:06 10:22:02 18° 168° (SSE) 10:25:58 437.500
DELFI C3 26 Mar 10:21:44 10:25:44 79° 101° (ESE) 10:29:43 145.870
Oscar 11 26 Mar 10:38:32 10:41:33 19° 290° (WNW) 10:44:34 .
ZACube-1 26 Mar 10:47:02 10:48:24 11° 293° (WNW) 10:49:44 437.345
PRISM 26 Mar 10:49:49 10:51:36 13° 266° (W) 10:53:24 437.425
POLYITAN 1 26 Mar 10:57:29 11:00:34 20° 70° (ENE) 11:03:39 437.675
PCSat 26 Mar 10:59:23 11:03:13 19° 306° (NW) 11:07:05 145.827
QB50P2 26 Mar 11:01:43 11:05:08 24° 71° (ENE) 11:08:34 145.880/145.840
DUCHIFAT 1 26 Mar 11:14:09 11:17:36 25° 71° (ENE) 11:21:05 145.980
ESTCUBE 1 26 Mar 11:18:59 11:22:11 19° 95° (E) 11:25:22 437.505/2401.250
TIGRISAT 26 Mar 11:23:24 11:26:11 15° 266° (W) 11:28:57 435.000
BUGSAT 1 26 Mar 11:32:49 11:34:38 13° 67° (ENE) 11:36:30 437.445
UNISAT 6 26 Mar 11:35:26 11:36:26 11° 268° (W) 11:37:25 437.425
RS-15 26 Mar 11:43:37 11:54:21 43° 106° (ESE) 12:05:27 29.354- 29.394
AIST 2D 26 Mar 11:46:07 11:49:32 46° 260° (W) 11:52:58 435.315
JUGNU 26 Mar 11:52:37 11:56:28 18° 191° (SSW) 12:00:20 437.505
NANOSAT C BR1 26 Mar 11:59:11 12:03:27 79° 258° (WSW) 12:07:44 145.865
FO-29 26 Mar 12:00:01 12:05:59 24° 266° (W) 12:11:49 435.910
LO-87 26 Mar 12:00:11 12:03:44 51° 284° (WNW) 12:07:15 145.935 - 145.965
EO-79 26 Mar 12:03:42 12:07:55 62° 259° (W) 12:12:11 145.935-145.965
SRMSAT 26 Mar 12:05:56 12:10:37 24° 178° (S) 12:15:17 437.500
VELOX 1 26 Mar 12:31:30 12:35:37 36° 98° (E) 12:39:43 145.980
POLYITAN 1 26 Mar 12:32:28 12:36:07 27° 263° (W) 12:39:48 437.675
QB50P2 26 Mar 12:37:26 12:40:47 22° 264° (W) 12:44:09 145.880/145.840
Oscar 19 26 Mar 12:38:04 12:42:05 24° 69° (ENE) 12:46:08 437.125/150
DUCHIFAT 1 26 Mar 12:49:57 12:53:10 21° 264° (W) 12:56:25 145.980
UKube-1 26 Mar 12:50:51 12:53:21 15° 95° (E) 12:55:50 .
Gurwin Techsat 1B 26 Mar 12:51:54 12:55:30 19° 66° (ENE) 12:59:05 435.225
ESTCUBE 1 26 Mar 12:55:00 12:58:58 31° 288° (WNW) 13:02:55 437.505/2401.250
50 SAT 26 Mar 12:57:03 13:00:25 44° 99° (E) 13:03:47 437.505
BUGSAT 1 26 Mar 13:05:33 13:09:33 43° 260° (W) 13:13:37 437.445
SPROUT 26 Mar 13:16:36 13:20:53 69° 284° (WNW) 13:25:07 437.525
SO-50 26 Mar 13:25:40 13:27:45 13° 108° (ESE) 13:29:49 436.795
DX 1 26 Mar 13:44:53 13:49:16 77° 285° (WNW) 13:53:39 434.975-435.025
SRMSAT 26 Mar 13:54:53 13:59:12 20° 189° (S) 14:03:30 437.500
RS-15 26 Mar 13:54:57 14:06:29 52° 306° (NW) 14:18:29 29.354- 29.394
AO-7 26 Mar 13:56:13 14:01:53 21° 58° (ENE) 14:07:31 .
VELOX 1 26 Mar 14:08:57 14:11:44 16° 292° (WNW) 14:14:30 145.980
Oscar 19 26 Mar 14:16:41 14:21:12 32° 262° (W) 14:25:45 437.125/150
ITAMSAT 1 26 Mar 14:24:44 14:28:49 24° 68° (ENE) 14:32:54 435.822/435.867
UKube-1 26 Mar 14:25:28 14:29:26 36° 288° (WNW) 14:33:23 .
Gurwin Techsat 1B 26 Mar 14:29:58 14:35:02 45° 260° (W) 14:40:07 435.225
BEESAT 26 Mar 14:30:27 14:32:47 14° 94° (E) 14:35:07 436.000
NO-84 26 Mar 14:41:11 14:44:29 62° 48° (NE) 14:48:05 435.350 FM
ITUPSAT 1 26 Mar 14:45:37 14:49:07 20° 96° (E) 14:52:36 437.325
SO-50 26 Mar 15:03:11 15:07:45 52° 301° (WNW) 15:12:16 436.795
AO-7 26 Mar 15:45:24 15:53:44 77° 254° (WSW) 16:02:05 .
SRMSAT 26 Mar 15:45:53 15:47:43 11° 198° (SSW) 15:49:31 437.500
ITAMSAT 1 26 Mar 16:03:19 16:08:02 34° 262° (W) 16:12:46 435.822/435.867
O/OREOS (USA 219) 26 Mar 16:03:44 16:07:13 22° 101° (E) 16:10:44 437.305
BEESAT 26 Mar 16:06:12 16:10:45 47° 286° (WNW) 16:15:17 436.000
KKS-1 26 Mar 16:06:45 16:08:03 11° 93° (E) 16:09:19 437.445
RS-15 26 Mar 16:16:10 16:22:56 16° 334° (NNW) 16:29:48 29.354- 29.394
ITUPSAT 1 26 Mar 16:22:43 16:26:56 32° 289° (WNW) 16:31:08 437.325
MOZHAYETS 4 26 Mar 16:22:50 16:27:24 76° 283° (WNW) 16:31:56
STARS 26 Mar 16:42:28 16:44:08 12° 93° (E) 16:45:47 437.465
DOVE 4 26 Mar 17:10:11 17:13:34 20° 68° (ENE) 17:17:06 437.250
CUBESAT XI-V 26 Mar 17:15:04 17:19:40 59° 101° (E) 17:24:16 437.345
XW-2F 26 Mar 17:31:02 17:33:49 20° 71° (ENE) 17:36:36 145.980 - 146.000
LilacSat-2 26 Mar 17:32:19 17:35:21 23° 72° (ENE) 17:38:23 437.200
KKS-1 26 Mar 17:40:28 17:44:49 51° 286° (WNW) 17:49:08 437.445
O/OREOS (USA 219) 26 Mar 17:42:39 17:46:26 26° 296° (WNW) 17:50:16 437.305
AO-7 26 Mar 17:45:55 17:47:27 11° 268° (W) 17:48:59 .
HO-68 26 Mar 17:48:26 17:51:01 12° 57° (ENE) 17:53:36 435.675
CUTE-I 26 Mar 17:53:03 17:58:07 44° 72° (ENE) 18:03:12 437.470
NUDT-PHONESAT 26 Mar 17:55:28 17:58:51 33° 74° (ENE) 18:02:15 437.300
XW-2D 26 Mar 17:56:04 17:59:43 46° 75° (ENE) 18:03:22 145.860 - 145.880
XW-2B 26 Mar 18:01:55 18:05:39 54° 76° (ENE) 18:09:22 145.730 - 145.750
KAITUO 1B 26 Mar 18:02:43 18:06:17 42° 75° (ENE) 18:09:50 145.475/437.950
PCSat 26 Mar 18:07:56 18:11:23 17° 52° (NE) 18:14:48 145.827
XW-2C 26 Mar 18:12:01 18:15:50 78° 77° (ENE) 18:19:38 145.795 - 145.815
STARS 26 Mar 18:16:26 18:20:40 46° 286° (WNW) 18:24:51 437.465
YUBILEINY 26 Mar 18:18:48 18:26:37 36° 76° (ENE) 18:34:24 435.215
M-CUBED/EXP-1 PRIME 26 Mar 18:34:51 18:38:58 30° 102° (ESE) 18:43:03 437.505
CUTE 1.7 + AOD 2 26 Mar 18:34:57 18:37:09 14° 68° (ENE) 18:39:19 437.475
RS-15 26 Mar 18:39:29 18:43:39 12° 14° (NNE) 18:47:47 29.354- 29.394
DOVE 4 26 Mar 18:46:52 18:50:57 32° 264° (W) 18:55:18 437.250
CUBESAT XI-V 26 Mar 18:55:05 18:56:29 11° 294° (WNW) 18:57:53 437.345
XW-2F 26 Mar 19:04:57 19:07:49 20° 264° (W) 19:10:40 145.980 - 146.000
LilacSat-2 26 Mar 19:06:51 19:09:31 18° 264° (W) 19:12:12 437.200
UWE-3 26 Mar 19:20:47 19:23:16 14° 68° (ENE) 19:25:45 435.000/436.395/437.385
HO-68 26 Mar 19:30:28 19:37:37 81° 73° (ENE) 19:44:47 435.675
NUDT-PHONESAT 26 Mar 19:31:36 19:32:51 11° 267° (W) 19:34:05 437.300
CUTE-I 26 Mar 19:34:39 19:38:17 18° 265° (W) 19:41:57 437.470
XW-2A 26 Mar 19:37:57 19:41:21 60° 260° (W) 19:44:46 145.665 - 145.685
Tancredo 1 26 Mar 19:44:45 19:47:45 43° 132° (SE) 19:50:46 437.200
ISS 26 Mar 19:45:32 19:48:34 38° 131° (SE) 19:51:38 437.550
AAUSAT CUBESAT 2 26 Mar 19:45:38 19:49:09 28° 73° (ENE) 19:52:40 437.432
STRAND 1 26 Mar 19:47:59 19:52:56 49° 100° (E) 19:57:51 437.568
PCSat 26 Mar 19:49:49 19:55:09 59° 248° (WSW) 20:00:26 145.827
CUBEBUG 2 26 Mar 19:52:22 19:57:01 56° 75° (ENE) 20:01:40 437.445
Oscar 11 26 Mar 19:53:50 19:55:52 13° 68° (ENE) 19:57:53 .
ZACube-1 26 Mar 20:00:00 20:03:30 22° 71° (ENE) 20:06:59 437.345
SEEDS 26 Mar 20:01:07 20:05:16 77° 259° (W) 20:09:26 437.485
CUTE 1.7 + AOD 2 26 Mar 20:08:42 20:12:36 37° 262° (W) 20:16:31 437.475
M-CUBED/EXP-1 PRIME 26 Mar 20:09:29 20:13:10 23° 295° (WNW) 20:16:50 437.505
YUBILEINY 26 Mar 20:15:25 20:23:20 41° 272° (W) 20:31:17 435.215
AO-73 26 Mar 20:27:25 20:31:40 41° 74° (ENE) 20:35:54 145.935
AO-85 26 Mar 20:44:36 20:49:11 85° 299° (WNW) 20:53:26 145.980
RS-15 26 Mar 20:50:49 21:01:43 35° 46° (NE) 21:12:09 29.354- 29.394
UWE-3 26 Mar 20:54:48 20:59:17 46° 261° (W) 21:03:45 435.000/436.395/437.385
DELFI C3 26 Mar 21:03:18 21:06:22 22° 72° (ENE) 21:09:27 145.870
BEESAT 3 26 Mar 21:20:02 21:22:36 17° 109° (ESE) 21:25:11 437.485
AAUSAT CUBESAT 2 26 Mar 21:21:57 21:24:35 17° 265° (W) 21:27:15 437.432
Tancredo 1 26 Mar 21:22:08 21:24:02 15° 327° (NNW) 21:25:56 437.200
HO-68 26 Mar 21:22:28 21:25:54 14° 268° (W) 21:29:22 435.675
ISS 26 Mar 21:22:55 21:25:09 17° 326° (NW) 21:27:23 437.550
Oscar 11 26 Mar 21:27:29 21:31:34 42° 261° (W) 21:35:40 .
STRAND 1 26 Mar 21:28:38 21:31:38 16° 294° (WNW) 21:34:38 437.568
CUBEBUG 2 26 Mar 21:32:15 21:33:51 12° 268° (W) 21:35:28 437.445
ZACube-1 26 Mar 21:35:42 21:39:35 27° 263° (W) 21:43:27 437.345
TIGRISAT 26 Mar 21:43:41 21:44:54 11° 92° (E) 21:46:06 435.000
